Clinton, British Columbia

2:19 PM PDT on August 22, 2017 (GMT -0700)
Clinton

Weather History for CWCL - June, 2013

Change the Weather History Date:

Friday, June 21, 2013

  Actual Average Record
Temperature  
Mean Temperature 58 °F -  
Max Temperature 70 °F 69 °F 82 °F (2004)
Min Temperature 45 °F 43 °F 31 °F (2015)
Degree Days  
Heating Degree Days 8    
Growing Degree Days 8 (Base 50)    
Moisture  
Dew Point 48 °F    
Average Humidity 86    
Maximum Humidity 100    
Minimum Humidity 41    
Precipitation  
Precipitation 0.02 in - - ()
Sea Level Pressure  
Sea Level Pressure 30.03 in    
Wind  
Wind Speed 4 mph ()    
Max Wind Speed 10 mph    
Max Gust Speed -    
Visibility 6.4 miles    
Events      
Averages and records for this station are not official NWS values.
T = Trace of Precipitation, MM = Missing Value Source: Averaged Metar Reports

Daily Weather History Graph

Daily Weather History Graph

Search for Another Location

Airport or City:

Trip Planner

Search our weather history database for the weather conditions in past years. The results will help you decide how hot, cold, wet, or windy it might be!

Date:

Astronomy

Jun. 21, 2013 Rise Set
Actual Time 4:50 AM PDT 9:25 PM PDT
Civil Twilight 4:03 AM PDT 10:12 PM PDT
Nautical Twilight 2:51 AM PDT 11:24 PM PDT
Astronomical Twilight 1:40 AM PDT 12:35 AM PDT
Moon 7:33 PM PDT (6/21) 3:21 AM PDT (6/21)
Length of Visible Light 18h 08m
Length of Day
16h 34m
Waxing Gibbous, 96% of the Moon is Illuminated
Jun 21
Waxing Gibbous
Jun 23
Full
Jun 29
Last Quarter
Jul 8
New
Jul 15
First Quarter

Hourly Weather History & Observations

Time (PDT) Temp. Windchill Dew Point Humidity Pressure Visibility Wind Dir Wind Speed Gust Speed Precip Events Conditions
12:00 AM 48.2 °F - 46.4 °F 93% 29.99 in 0.4 mi South 5.8 mph - N/A   Overcast
12:35 AM 48.2 °F - 46.4 °F 93% 29.98 in 0.8 mi South 6.9 mph - N/A   Overcast
12:38 AM 48.2 °F - 46.4 °F 93% 29.98 in 1.5 mi South 4.6 mph - N/A   Overcast
12:50 AM 48.2 °F - 46.4 °F 93% 29.98 in 9.0 mi South 4.6 mph - N/A   Overcast
1:00 AM 48.2 °F - 46.4 °F 93% 30.00 in 6.0 mi SSE 3.5 mph - N/A   Overcast
1:07 AM 48.2 °F - 46.4 °F 93% 29.98 in 2.1 mi South 3.5 mph - N/A   Overcast
1:13 AM 48.2 °F - 46.4 °F 93% 29.98 in 1.4 mi South 4.6 mph - N/A   Overcast
1:27 AM 46.4 °F 43.5 °F 46.4 °F 100% 29.99 in 3.0 mi South 5.8 mph - N/A   Overcast
2:00 AM 46 °F - 45 °F 96% 30.01 in 9 mi SSW 3.5 mph - -   Overcast
2:00 AM 46.4 °F 45.2 °F 44.6 °F 93% 30.01 in 9.0 mi SSW 3.5 mph - N/A   Overcast
2:08 AM 46.4 °F - 44.6 °F 93% 29.99 in 9.0 mi SW 2.3 mph - N/A   Partly Cloudy
2:15 AM 46.4 °F - 44.6 °F 93% 29.99 in 9.0 mi SSW 2.3 mph - N/A   Mostly Cloudy
2:17 AM 46.4 °F - 44.6 °F 93% 29.99 in 9.0 mi South 2.3 mph - N/A   Mostly Cloudy
2:18 AM 46.4 °F - 44.6 °F 93% 29.99 in 9.0 mi South 2.3 mph - N/A   Overcast
2:26 AM 46.4 °F - 44.6 °F 93% 29.99 in 2.1 mi SSW 2.3 mph - N/A   Overcast
2:30 AM 46.4 °F - 44.6 °F 93% 29.99 in 1.2 mi South 2.3 mph - N/A   Overcast
2:35 AM 46.4 °F - 44.6 °F 93% 30.00 in 1.0 mi Calm Calm - N/A   Overcast
2:52 AM 46.4 °F 45.2 °F 44.6 °F 93% 30.00 in 0.6 mi SW 3.5 mph - N/A   Overcast
3:00 AM 46.4 °F 44.3 °F 44.6 °F 93% 30.02 in 0.4 mi SSW 4.6 mph - N/A   Mostly Cloudy
3:10 AM 46.4 °F 44.3 °F 46.4 °F 100% 30.01 in 1.0 mi SSW 4.6 mph - N/A   Overcast
3:14 AM 46.4 °F 45.2 °F 46.4 °F 100% 30.01 in 3.5 mi South 3.5 mph - N/A   Overcast
3:34 AM 46.4 °F 45.2 °F 44.6 °F 93% 30.01 in 2.5 mi South 3.5 mph - N/A   Overcast
3:37 AM 46.4 °F 45.2 °F 44.6 °F 93% 30.01 in 1.4 mi South 3.5 mph - N/A   Overcast
3:50 AM 46.4 °F 44.3 °F 44.6 °F 93% 30.01 in 1.0 mi SSW 4.6 mph - N/A   Overcast
3:53 AM 46.4 °F - 46.4 °F 100% 30.01 in 0.6 mi South 2.3 mph - N/A   Overcast
3:58 AM 46.4 °F 45.2 °F 46.4 °F 100% 30.01 in 0.4 mi South 3.5 mph - N/A   Mostly Cloudy
4:00 AM 46.4 °F 45.2 °F 46.4 °F 100% 30.02 in 0.2 mi SSW 3.5 mph - N/A   Mostly Cloudy
4:04 AM 46.4 °F 44.3 °F 46.4 °F 100% 30.01 in 0.1 mi South 4.6 mph - N/A   Overcast
4:38 AM 46.4 °F 44.3 °F 46.4 °F 100% 30.02 in 0.5 mi South 4.6 mph - N/A   Overcast
4:45 AM 46.4 °F - 46.4 °F 100% 30.02 in 1.0 mi Calm Calm - N/A   Overcast
4:51 AM 46.4 °F 44.3 °F 44.6 °F 93% 30.03 in 3.0 mi South 4.6 mph - N/A   Overcast
5:00 AM 46 °F - 46 °F 97% 30.04 in 9 mi SSW 3.5 mph - -   Overcast
5:00 AM 46.4 °F 45.2 °F 46.4 °F 100% 30.04 in 9.0 mi SSW 3.5 mph - N/A   Overcast
6:00 AM 46.4 °F - 46.4 °F 100% 30.06 in 9.0 mi Calm Calm - N/A   Overcast
6:07 AM 46.4 °F 44.3 °F 46.4 °F 100% 30.04 in 9.0 mi South 4.6 mph - N/A   Overcast
6:34 AM 46.4 °F 45.2 °F 46.4 °F 100% 30.05 in 9.0 mi SSW 3.5 mph - N/A   Overcast
6:36 AM 46.4 °F 45.2 °F 46.4 °F 100% 30.05 in 9.0 mi South 3.5 mph - N/A   Overcast
7:00 AM 46.4 °F - 46.4 °F 100% 30.08 in 9.0 mi Calm Calm - N/A   Overcast
7:29 AM 48.2 °F - 46.4 °F 93% 30.05 in 1.6 mi South 2.3 mph - N/A   Overcast
7:30 AM 48.2 °F - 46.4 °F 93% 30.05 in 1.2 mi South 2.3 mph - N/A   Overcast
7:41 AM 48.2 °F - 46.4 °F 93% 30.05 in 3.0 mi South 2.3 mph - N/A   Overcast
8:00 AM 48 °F - 47 °F 95% 30.08 in 9 mi South 3.5 mph - -   Overcast
8:00 AM 48.2 °F - 46.4 °F 93% 30.08 in 9.0 mi South 3.5 mph - N/A   Overcast
8:02 AM 48.2 °F - 46.4 °F 93% 30.05 in 9.0 mi South 3.5 mph - N/A   Overcast
8:09 AM 48.2 °F - 46.4 °F 93% 30.05 in 9.0 mi South 3.5 mph - N/A   Overcast
8:10 AM 48.2 °F - 48.2 °F 100% 30.05 in 9.0 mi South 3.5 mph - N/A   Overcast
8:38 AM 50.0 °F - 48.2 °F 94% 30.05 in 9.0 mi ESE 2.3 mph - N/A   Overcast
8:52 AM 50.0 °F - 48.2 °F 94% 30.06 in 9.0 mi SSE 4.6 mph - N/A   Overcast
8:54 AM 50.0 °F - 48.2 °F 94% 30.06 in 9.0 mi South 3.5 mph - N/A   Overcast
9:00 AM 50.0 °F - 48.2 °F 94% 30.09 in 9.0 mi SSE 4.6 mph - N/A   Overcast
9:59 AM 51.8 °F - 50.0 °F 94% 30.06 in 9.0 mi South 4.6 mph - N/A   Mostly Cloudy
10:00 AM 51.8 °F - 48.2 °F 88% 30.08 in 9.0 mi South 5.8 mph - N/A   Mostly Cloudy
10:16 AM 51.8 °F - 48.2 °F 88% 30.05 in 9.0 mi South 4.6 mph - N/A   Overcast
11:00 AM 55 °F - 50 °F 78% 30.08 in 9 mi SE 2.3 mph - -   Overcast
11:00 AM 55.4 °F - 50.0 °F 82% 30.08 in 9.0 mi SE 3.5 mph - N/A   Overcast
12:00 PM 60.8 °F - 53.6 °F 77% 30.07 in 9.0 mi South 5.8 mph - N/A   Overcast
12:32 PM 60.8 °F - 53.6 °F 77% 30.05 in 9.0 mi SE 2.3 mph - N/A   Light Drizzle
12:33 PM 60.8 °F - 51.8 °F 72% 30.05 in 9.0 mi SSE 2.3 mph - N/A   Overcast
12:56 PM 62.6 °F - 51.8 °F 68% 30.05 in 9.0 mi Calm Calm - N/A   Light Drizzle
1:00 PM 60.8 °F - 51.8 °F 72% 30.06 in 9.0 mi ESE 2.3 mph - N/A   Light Drizzle
1:09 PM 60.8 °F - 53.6 °F 77% 30.05 in 9.0 mi NNE 2.3 mph - N/A   Overcast
2:00 PM 63 °F - 52 °F 59% 30.04 in 9 mi SW 2.3 mph - -  
2:00 PM 62.6 °F - 51.8 °F 68% 30.04 in 9.0 mi WSW 3.5 mph - N/A   Scattered Clouds
3:00 PM 68.0 °F - 53.6 °F 60% 30.03 in 9.0 mi South 5.8 mph - N/A   Clear
4:00 PM 69.8 °F - 51.8 °F 53% 30.01 in 9.0 mi SSW 2.3 mph - N/A   Partly Cloudy
5:00 PM 69 °F - 50 °F 41% 30.00 in 9 mi South 9.2 mph - -  
5:00 PM 68.0 °F - 50.0 °F 52% 30.00 in 9.0 mi South 9.2 mph - N/A   Clear
6:00 PM 69.8 °F - 48.2 °F 46% 29.99 in 9.0 mi South 10.4 mph - N/A   Partly Cloudy
6:29 PM 68.0 °F - 50.0 °F 52% 29.99 in 9.0 mi South 5.8 mph - N/A   Light Drizzle
6:42 PM 66.2 °F - 50.0 °F 56% 29.99 in 9.0 mi SSE 8.1 mph - N/A   Partly Cloudy
7:00 PM 66.2 °F - 48.2 °F 52% 30.00 in 9.0 mi South 8.1 mph - N/A   Partly Cloudy
8:00 PM 62 °F - 50 °F 54% 30.00 in 9 mi SSW 5.8 mph - -  
8:00 PM 62.6 °F - 50.0 °F 63% 30.00 in 9.0 mi SSW 6.9 mph - N/A   Clear
9:00 PM 59.0 °F - 50.0 °F 72% 30.01 in 9.0 mi South 10.4 mph - N/A   Clear
10:00 PM 59.0 °F - 50.0 °F 72% 30.03 in 9.0 mi South 6.9 mph - N/A   Clear
11:00 PM 55 °F - 48 °F 71% 30.03 in 9 mi South 3.5 mph - -  
11:00 PM 55.4 °F - 48.2 °F 77% 30.03 in 9.0 mi South 4.6 mph - N/A   Clear